When you browse on this site, cookies collect data to enhance your experience and personalize the content and advertising you see.
Visit our Privacy Policy to learn more. By continuing to use the site, you agree to this use of cookies and data.
  • In Sweden
  • List of Countries
  • For 7 days
  • Water Temperature
  • Satellite Maps
  • Weather Map
  • Weather Widgets
  • user-avatar
    Login

    Hourly Weather Bozüyük

    Today, 21 November, Wednesday

    Time Temperature Precipitation Wind Pressure Humidity
    00:00 +12°C° 0 mm 1 mps 697 mmHg 74%
    01:00 +12°C° 0 mm 1 mps 696 mmHg 74%
    02:00 +12°C° 0 mm 1 mps 696 mmHg 74%
    03:00 +12°C° 0 mm 2 mps 696 mmHg 73%
    04:00 +12°C° 0 mm 2 mps 695 mmHg 73%
    05:00 +12°C° 0 mm 2 mps 695 mmHg 73%
    06:00 +12°C° 0 mm 2 mps 695 mmHg 72%
    07:00 +12°C° 0 mm 2 mps 695 mmHg 71%
    08:00 +12°C° 0 mm 2 mps 695 mmHg 70%
    09:00 +13°C° 0 mm 3 mps 695 mmHg 63%
    10:00 +14°C° 0 mm 3 mps 695 mmHg 57%
    11:00 +17°C° 0 mm 3 mps 695 mmHg 50%
    12:00 +17°C° 0.1 mm 3 mps 694 mmHg 50%
    13:00 +17°C° 0.1 mm 3 mps 694 mmHg 50%
    14:00 +17°C° 0.1 mm 3 mps 693 mmHg 50%
    15:00 +16°C° 0.3 mm 2 mps 693 mmHg 56%
    16:00 +15°C° 0.3 mm 2 mps 693 mmHg 62%
    17:00 +13°C° 0.3 mm 1 mps 692 mmHg 68%
    18:00 +13°C° 0.3 mm 2 mps 692 mmHg 70%
    19:00 +13°C° 0.3 mm 2 mps 692 mmHg 73%
    20:00 +12°C° 0.3 mm 2 mps 692 mmHg 76%
    21:00 +12°C° 0.1 mm 2 mps 692 mmHg 79%
    22:00 +10°C° 0.1 mm 2 mps 692 mmHg 81%
    23:00 +10°C° 0.1 mm 2 mps 692 mmHg 84%

    Tomorrow, 22 November, Thursday

    Time Temperature Precipitation Wind Pressure Humidity
    00:00 +9°C° 0 mm 2 mps 692 mmHg 85%
    01:00 +9°C° 0 mm 2 mps 692 mmHg 87%
    02:00 +9°C° 0 mm 2 mps 692 mmHg 88%
    03:00 +8°C° 0 mm 2 mps 692 mmHg 89%
    04:00 +8°C° 0 mm 2 mps 692 mmHg 89%
    05:00 +9°C° 0 mm 1 mps 692 mmHg 90%
    06:00 +9°C° 0.1 mm 1 mps 692 mmHg 89%
    07:00 +9°C° 0.1 mm 1 mps 693 mmHg 88%
    08:00 +10°C° 0.1 mm 1 mps 693 mmHg 87%
    09:00 +11°C° 0 mm 1 mps 693 mmHg 80%
    10:00 +12°C° 0 mm 2 mps 693 mmHg 74%
    11:00 +13°C° 0 mm 2 mps 694 mmHg 67%
    12:00 +13°C° 0.2 mm 2 mps 693 mmHg 67%
    13:00 +14°C° 0.2 mm 2 mps 693 mmHg 66%
    14:00 +14°C° 0.2 mm 2 mps 693 mmHg 66%
    15:00 +13°C° 0.3 mm 2 mps 693 mmHg 72%
    16:00 +12°C° 0.3 mm 2 mps 693 mmHg 77%
    17:00 +10°C° 0.3 mm 2 mps 693 mmHg 83%
    18:00 +9°C° 0.3 mm 2 mps 694 mmHg 87%
    19:00 +9°C° 0.3 mm 2 mps 694 mmHg 90%
    20:00 +8°C° 0.3 mm 2 mps 695 mmHg 94%
    21:00 +8°C° 0.2 mm 2 mps 695 mmHg 94%
    22:00 +8°C° 0.2 mm 3 mps 695 mmHg 94%
    23:00 +8°C° 0.2 mm 3 mps 695 mmHg 94%

    Day after tomorrow, 23 November, Friday

    Time Temperature Precipitation Wind Pressure Humidity
    00:00 +8°C° 0.1 mm 3 mps 696 mmHg 93%
    01:00 +7°C° 0.1 mm 3 mps 696 mmHg 93%
    02:00 +7°C° 0.1 mm 3 mps 696 mmHg 92%
    03:00 +7°C° 0.1 mm 3 mps 696 mmHg 91%
    04:00 +7°C° 0.1 mm 3 mps 696 mmHg 91%
    05:00 +5°C° 0.1 mm 3 mps 696 mmHg 90%
    06:00 +5°C° 0.1 mm 3 mps 697 mmHg 89%
    07:00 +5°C° 0.1 mm 3 mps 697 mmHg 89%
    08:00 +5°C° 0.1 mm 3 mps 698 mmHg 89%
    09:00 +5°C° 0 mm 3 mps 698 mmHg 86%
    10:00 +7°C° 0 mm 3 mps 698 mmHg 83%
    11:00 +7°C° 0 mm 3 mps 698 mmHg 80%
    12:00 +7°C° 0 mm 3 mps 698 mmHg 79%
    13:00 +6°C° 0 mm 4 mps 698 mmHg 79%
    14:00 +6°C° 0 mm 4 mps 698 mmHg 78%
    15:00 +5°C° 0 mm 3 mps 698 mmHg 80%
    16:00 +5°C° 0 mm 3 mps 698 mmHg 81%
    17:00 +4°C° 0 mm 3 mps 698 mmHg 83%
    18:00 +4°C° 0 mm 3 mps 698 mmHg 84%
    19:00 +4°C° 0 mm 3 mps 699 mmHg 85%
    20:00 +4°C° 0 mm 2 mps 699 mmHg 87%
    21:00 +4°C° 0 mm 2 mps 699 mmHg 86%
    22:00 +4°C° 0 mm 2 mps 699 mmHg 85%
    23:00 +4°C° 0 mm 2 mps 699 mmHg 84%

    24 November, Saturday

    Time Temperature Precipitation Wind Pressure Humidity
    00:00 +4°C° 0 mm 2 mps 699 mmHg 85%
    01:00 +4°C° 0 mm 2 mps 699 mmHg 86%
    02:00 +4°C° 0 mm 1 mps 699 mmHg 87%
    03:00 +4°C° 0 mm 1 mps 699 mmHg 89%
    04:00 +4°C° 0 mm 1 mps 699 mmHg 90%
    05:00 +3°C° 0 mm 1 mps 698 mmHg 92%
    06:00 +4°C° 0 mm 1 mps 699 mmHg 91%
    07:00 +4°C° 0 mm 1 mps 699 mmHg 89%
    08:00 +4°C° 0 mm 1 mps 699 mmHg 88%
    09:00 +5°C° 0 mm 1 mps 699 mmHg 81%
    10:00 +7°C° 0 mm 1 mps 699 mmHg 75%
    11:00 +7°C° 0 mm 2 mps 699 mmHg 68%
    12:00 +8°C° 0 mm 2 mps 698 mmHg 63%
    13:00 +9°C° 0 mm 2 mps 698 mmHg 58%
    14:00 +10°C° 0 mm 2 mps 697 mmHg 53%
    15:00 +9°C° 0 mm 2 mps 697 mmHg 58%
    16:00 +8°C° 0 mm 2 mps 697 mmHg 62%
    17:00 +8°C° 0 mm 1 mps 697 mmHg 67%
    18:00 +7°C° 0 mm 1 mps 697 mmHg 69%
    19:00 +6°C° 0 mm 1 mps 697 mmHg 71%
    20:00 +6°C° 0 mm 1 mps 697 mmHg 73%
    21:00 +6°C° 0 mm 1 mps 697 mmHg 73%
    22:00 +6°C° 0 mm 1 mps 697 mmHg 72%
    23:00 +5°C° 0 mm 1 mps 697 mmHg 71%

    25 November, Sunday

    Time Temperature Precipitation Wind Pressure Humidity
    00:00 +5°C° 0 mm 1 mps 697 mmHg 71%
    01:00 +5°C° 0 mm 1 mps 696 mmHg 70%
    02:00 +5°C° 0 mm 1 mps 696 mmHg 70%
    03:00 +5°C° 0 mm 1 mps 696 mmHg 71%
    04:00 +4°C° 0 mm 1 mps 696 mmHg 71%
    05:00 +4°C° 0 mm 1 mps 696 mmHg 72%
    06:00 +5°C° 0 mm 1 mps 696 mmHg 71%
    07:00 +5°C° 0 mm 1 mps 696 mmHg 70%
    08:00 +5°C° 0 mm 1 mps 697 mmHg 69%
    09:00 +7°C° 0 mm 1 mps 697 mmHg 63%
    10:00 +9°C° 0 mm 1 mps 697 mmHg 56%
    11:00 +11°C° 0 mm 1 mps 697 mmHg 50%
    12:00 +12°C° 0 mm 1 mps 696 mmHg 47%
    13:00 +12°C° 0 mm 1 mps 696 mmHg 45%
    14:00 +13°C° 0 mm 1 mps 695 mmHg 43%
    15:00 +12°C° 0 mm 1 mps 695 mmHg 48%
    16:00 +10°C° 0 mm 1 mps 695 mmHg 54%
    17:00 +9°C° 0 mm 1 mps 695 mmHg 60%
    18:00 +8°C° 0 mm 1 mps 695 mmHg 63%
    19:00 +8°C° 0 mm 1 mps 695 mmHg 66%
    20:00 +7°C° 0 mm 1 mps 695 mmHg 69%
    21:00 +7°C° 0 mm 1 mps 695 mmHg 69%
    22:00 +7°C° 0 mm 1 mps 695 mmHg 70%
    23:00 +6°C° 0 mm 1 mps 695 mmHg 71%

    26 November, Monday

    Time Temperature Precipitation Wind Pressure Humidity
    00:00 +6°C° 0 mm 1 mps 694 mmHg 71%
    01:00 +5°C° 0 mm 2 mps 694 mmHg 72%
    02:00 +5°C° 0 mm 2 mps 694 mmHg 72%
    03:00 +5°C° 0 mm 2 mps 694 mmHg 72%
    04:00 +4°C° 0 mm 2 mps 694 mmHg 72%
    05:00 +4°C° 0 mm 2 mps 694 mmHg 72%
    06:00 +5°C° 0 mm 2 mps 694 mmHg 71%
    07:00 +5°C° 0 mm 2 mps 694 mmHg 70%
    08:00 +5°C° 0 mm 2 mps 694 mmHg 68%
    09:00 +7°C° 0 mm 2 mps 694 mmHg 61%
    10:00 +9°C° 0 mm 2 mps 694 mmHg 53%
    11:00 +12°C° 0 mm 2 mps 694 mmHg 45%
    12:00 +12°C° 0.1 mm 2 mps 693 mmHg 47%
    13:00 +12°C° 0.1 mm 2 mps 693 mmHg 49%
    14:00 +12°C° 0.1 mm 2 mps 693 mmHg 51%
    15:00 +10°C° 0.6 mm 2 mps 692 mmHg 58%
    16:00 +9°C° 0.6 mm 2 mps 692 mmHg 64%
    17:00 +9°C° 0.6 mm 2 mps 692 mmHg 71%
    18:00 +8°C° 0.9 mm 2 mps 692 mmHg 75%
    19:00 +8°C° 0.9 mm 2 mps 692 mmHg 78%
    20:00 +8°C° 0.9 mm 2 mps 692 mmHg 81%
    21:00 +8°C° 0.6 mm 2 mps 692 mmHg 82%
    22:00 +8°C° 0.6 mm 2 mps 692 mmHg 84%
    23:00 +8°C° 0.6 mm 2 mps 693 mmHg 85%
    Show more